Tracking 19792 objects as of 16-Jul-2019
HD Live streaming from Space Station
objects crossing your sky now

COSMOS 1823 DEB

Track COSMOS 1823 DEB now!
10-day predictions


NORAD ID: 18729
Int'l Code: 1987-020G
Perigee: 1,483.1 km
Apogee: 1,686.5 km
Inclination: 73.8 °
Period: 117.7 minutes
Semi major axis: 7955 km
RCS: 0.1765 m2 (medium)
Launch date: February 20, 1987
Source: Commonwealth of Independent States (former USSR) (CIS)
Launch site: PLESETSK MISSILE AND SPACE COMPLEX (PKMTR)

Note: This is SATELLITE DEBRIS
aabbcc
Your satellite tracking list
Your tracking list is empty




NASA's NSSDC Master Catalog

Two Line Element Set (TLE):
1 18729U 87020G   19196.91647197 +.00000018 +00000-0 +29885-3 0  9998
2 18729 073.8120 183.8791 0127817 174.7070 209.4764 12.23417773409764
Source of the keplerian elements: AFSPC